owner,sensor,date,latitude,longitude,vertical_datum,sea_water_practical_salinity,qcFlag 
ENP,ioos.station.NOAA.NDBC:LBSF1:1,2017-11-01T00:00:00Z,25.2140,-80.4320,1.5,12.17,1111122 
ENP,ioos.station.NOAA.NDBC:LBSF1:1,2017-11-01T02:00:00Z,25.2140,-80.4320,1.5,11.93,1111122 
ENP,ioos.station.NOAA.NDBC:LBSF1:1,2017-11-01T03:00:00Z,25.2140,-80.4320,1.5,11.8,1111122 
ENP,ioos.station.NOAA.NDBC:LBSF1:1,2017-11-01T06:00:00Z,25.2140,-80.4320,1.5,11.83,1111122 
ENP,ioos.station.NOAA.NDBC:LBSF1:1,2017-11-01T07:00:00Z,25.2140,-80.4320,1.5,11.83,1111122 
ENP,ioos.station.NOAA.NDBC:LBSF1:1,2017-11-01T08:00:00Z,25.2140,-80.4320,1.5,11.8,1111122 
ENP,ioos.station.NOAA.NDBC:LBSF1:1,2017-11-01T11:00:00Z,25.2140,-80.4320,1.5,11.71,1111122 
ENP,ioos.station.NOAA.NDBC:LBSF1:1,2017-11-01T12:00:00Z,25.2140,-80.4320,1.5,11.71,1111122 
ENP,ioos.station.NOAA.NDBC:LBSF1:1,2017-11-01T13:00:00Z,25.2140,-80.4320,1.5,11.72,1111122 
ENP,ioos.station.NOAA.NDBC:LBSF1:1,2017-11-01T14:00:00Z,25.2140,-80.4320,1.5,11.75,1111122 
ENP,ioos.station.NOAA.NDBC:LBSF1:1,2017-11-01T15:00:00Z,25.2140,-80.4320,1.5,11.76,1111122 
ENP,ioos.station.NOAA.NDBC:LBSF1:1,2017-11-01T16:00:00Z,25.2140,-80.4320,1.5,11.79,1111122 
ENP,ioos.station.NOAA.NDBC:LBSF1:1,2017-11-01T17:00:00Z,25.2140,-80.4320,1.5,11.8,1111122 
ENP,ioos.station.NOAA.NDBC:LBSF1:1,2017-11-01T18:00:00Z,25.2140,-80.4320,1.5,11.8,1111122 
ENP,ioos.station.NOAA.NDBC:LBSF1:1,2017-11-01T19:00:00Z,25.2140,-80.4320,1.5,11.81,1111122 
ENP,ioos.station.NOAA.NDBC:LBSF1:1,2017-11-01T20:00:00Z,25.2140,-80.4320,1.5,11.81,1111122 
ENP,ioos.station.NOAA.NDBC:LBSF1:1,2017-11-01T21:00:00Z,25.2140,-80.4320,1.5,11.74,1111122 
ENP,ioos.station.NOAA.NDBC:LBSF1:1,2017-11-01T22:00:00Z,25.2140,-80.4320,1.5,11.73,1111122 
ENP,ioos.station.NOAA.NDBC:LBSF1:1,2017-11-01T23:00:00Z,25.2140,-80.4320,1.5,11.74,1111122 
ENP,ioos.station.NOAA.NDBC:LBSF1:1,2017-11-02T00:00:00Z,25.2140,-80.4320,1.5,11.75,1111122 
ENP,ioos.station.NOAA.NDBC:LBSF1:1,2017-11-02T02:00:00Z,25.2140,-80.4320,1.5,11.75,1111122 
ENP,ioos.station.NOAA.NDBC:LBSF1:1,2017-11-02T03:00:00Z,25.2140,-80.4320,1.5,11.72,1111122 
ENP,ioos.station.NOAA.NDBC:LBSF1:1,2017-11-02T05:00:00Z,25.2140,-80.4320,1.5,11.17,1111122 
ENP,ioos.station.NOAA.NDBC:LBSF1:1,2017-11-02T06:00:00Z,25.2140,-80.4320,1.5,11.06,1111122 
ENP,ioos.station.NOAA.NDBC:LBSF1:1,2017-11-02T07:00:00Z,25.2140,-80.4320,1.5,11.09,1111122 
ENP,ioos.station.NOAA.NDBC:LBSF1:1,2017-11-02T08:00:00Z,25.2140,-80.4320,1.5,11.09,1111122 
ENP,ioos.station.NOAA.NDBC:LBSF1:1,2017-11-02T10:00:00Z,25.2140,-80.4320,1.5,11.11,1111122 
ENP,ioos.station.NOAA.NDBC:LBSF1:1,2017-11-02T11:00:00Z,25.2140,-80.4320,1.5,11.13,1111122 
ENP,ioos.station.NOAA.NDBC:LBSF1:1,2017-11-02T12:00:00Z,25.2140,-80.4320,1.5,11.14,1111122 
ENP,ioos.station.NOAA.NDBC:LBSF1:1,2017-11-02T13:00:00Z,25.2140,-80.4320,1.5,11.08,1111122 
ENP,ioos.station.NOAA.NDBC:LBSF1:1,2017-11-02T14:00:00Z,25.2140,-80.4320,1.5,11.02,1111122 
ENP,ioos.station.NOAA.NDBC:LBSF1:1,2017-11-02T15:00:00Z,25.2140,-80.4320,1.5,10.96,1111122 
ENP,ioos.station.NOAA.NDBC:LBSF1:1,2017-11-02T16:00:00Z,25.2140,-80.4320,1.5,10.98,1111122 
ENP,ioos.station.NOAA.NDBC:LBSF1:1,2017-11-02T17:00:00Z,25.2140,-80.4320,1.5,11.03,1111122 
ENP,ioos.station.NOAA.NDBC:LBSF1:1,2017-11-02T18:00:00Z,25.2140,-80.4320,1.5,11.07,1111122 
ENP,ioos.station.NOAA.NDBC:LBSF1:1,2017-11-02T19:00:00Z,25.2140,-80.4320,1.5,11.04,1111122 
ENP,ioos.station.NOAA.NDBC:LBSF1:1,2017-11-02T20:00:00Z,25.2140,-80.4320,1.5,10.87,1111122 
ENP,ioos.station.NOAA.NDBC:LBSF1:1,2017-11-02T21:00:00Z,25.2140,-80.4320,1.5,10.58,1111122 
ENP,ioos.station.NOAA.NDBC:LBSF1:1,2017-11-02T22:00:00Z,25.2140,-80.4320,1.5,10.45,1111122 
ENP,ioos.station.NOAA.NDBC:LBSF1:1,2017-11-02T23:00:00Z,25.2140,-80.4320,1.5,10.3,1111122 
ENP,ioos.station.NOAA.NDBC:LBSF1:1,2017-11-03T00:00:00Z,25.2140,-80.4320,1.5,10.31,1111122 
ENP,ioos.station.NOAA.NDBC:LBSF1:1,2017-11-03T02:00:00Z,25.2140,-80.4320,1.5,10.5,1111122 
ENP,ioos.station.NOAA.NDBC:LBSF1:1,2017-11-03T03:00:00Z,25.2140,-80.4320,1.5,10.65,1111122 
ENP,ioos.station.NOAA.NDBC:LBSF1:1,2017-11-03T05:00:00Z,25.2140,-80.4320,1.5,10.72,1111122 
ENP,ioos.station.NOAA.NDBC:LBSF1:1,2017-11-03T06:00:00Z,25.2140,-80.4320,1.5,10.72,1111122 
ENP,ioos.station.NOAA.NDBC:LBSF1:1,2017-11-03T07:00:00Z,25.2140,-80.4320,1.5,10.7,1111122 
ENP,ioos.station.NOAA.NDBC:LBSF1:1,2017-11-03T08:00:00Z,25.2140,-80.4320,1.5,10.64,1111122 
ENP,ioos.station.NOAA.NDBC:LBSF1:1,2017-11-03T10:00:00Z,25.2140,-80.4320,1.5,10.58,1111122 
ENP,ioos.station.NOAA.NDBC:LBSF1:1,2017-11-03T11:00:00Z,25.2140,-80.4320,1.5,10.58,1111122 
ENP,ioos.station.NOAA.NDBC:LBSF1:1,2017-11-03T12:00:00Z,25.2140,-80.4320,1.5,10.57,1111122 
ENP,ioos.station.NOAA.NDBC:LBSF1:1,2017-11-03T13:00:00Z,25.2140,-80.4320,1.5,10.54,1111122 
ENP,ioos.station.NOAA.NDBC:LBSF1:1,2017-11-03T14:00:00Z,25.2140,-80.4320,1.5,10.47,1111122 
ENP,ioos.station.NOAA.NDBC:LBSF1:1,2017-11-03T15:00:00Z,25.2140,-80.4320,1.5,10.43,1111122 
ENP,ioos.station.NOAA.NDBC:LBSF1:1,2017-11-03T16:00:00Z,25.2140,-80.4320,1.5,10.43,1111122 
ENP,ioos.station.NOAA.NDBC:LBSF1:1,2017-11-03T17:00:00Z,25.2140,-80.4320,1.5,10.5,1111122 
ENP,ioos.station.NOAA.NDBC:LBSF1:1,2017-11-03T18:00:00Z,25.2140,-80.4320,1.5,10.54,1111122 
ENP,ioos.station.NOAA.NDBC:LBSF1:1,2017-11-03T19:00:00Z,25.2140,-80.4320,1.5,10.57,1111122 
ENP,ioos.station.NOAA.NDBC:LBSF1:1,2017-11-03T20:00:00Z,25.2140,-80.4320,1.5,10.58,1111122 
ENP,ioos.station.NOAA.NDBC:LBSF1:1,2017-11-03T21:00:00Z,25.2140,-80.4320,1.5,10.63,1111122 
ENP,ioos.station.NOAA.NDBC:LBSF1:1,2017-11-03T22:00:00Z,25.2140,-80.4320,1.5,10.62,1111122 
ENP,ioos.station.NOAA.NDBC:LBSF1:1,2017-11-03T23:00:00Z,25.2140,-80.4320,1.5,10.65,1111122 
ENP,ioos.station.NOAA.NDBC:LBSF1:1,2017-11-04T00:00:00Z,25.2140,-80.4320,1.5,10.43,1111122 
ENP,ioos.station.NOAA.NDBC:LBSF1:1,2017-11-04T03:00:00Z,25.2140,-80.4320,1.5,10.58,1111122 
ENP,ioos.station.NOAA.NDBC:LBSF1:1,2017-11-04T06:00:00Z,25.2140,-80.4320,1.5,10.05,1111122 
ENP,ioos.station.NOAA.NDBC:LBSF1:1,2017-11-04T07:00:00Z,25.2140,-80.4320,1.5,9.96,1111122 
ENP,ioos.station.NOAA.NDBC:LBSF1:1,2017-11-04T08:00:00Z,25.2140,-80.4320,1.5,9.99,1111122 
ENP,ioos.station.NOAA.NDBC:LBSF1:1,2017-11-04T10:00:00Z,25.2140,-80.4320,1.5,10.01,1111122 
ENP,ioos.station.NOAA.NDBC:LBSF1:1,2017-11-04T11:00:00Z,25.2140,-80.4320,1.5,10.05,1111122 
ENP,ioos.station.NOAA.NDBC:LBSF1:1,2017-11-04T12:00:00Z,25.2140,-80.4320,1.5,10.08,1111122 
ENP,ioos.station.NOAA.NDBC:LBSF1:1,2017-11-04T13:00:00Z,25.2140,-80.4320,1.5,10.07,1111122 
ENP,ioos.station.NOAA.NDBC:LBSF1:1,2017-11-04T14:00:00Z,25.2140,-80.4320,1.5,9.97,1111122 
ENP,ioos.station.NOAA.NDBC:LBSF1:1,2017-11-04T15:00:00Z,25.2140,-80.4320,1.5,9.86,1111122 
ENP,ioos.station.NOAA.NDBC:LBSF1:1,2017-11-04T16:00:00Z,25.2140,-80.4320,1.5,9.82,1111122 
ENP,ioos.station.NOAA.NDBC:LBSF1:1,2017-11-04T17:00:00Z,25.2140,-80.4320,1.5,9.84,1111122 
ENP,ioos.station.NOAA.NDBC:LBSF1:1,2017-11-04T18:00:00Z,25.2140,-80.4320,1.5,9.94,1111122 
ENP,ioos.station.NOAA.NDBC:LBSF1:1,2017-11-04T19:00:00Z,25.2140,-80.4320,1.5,10.11,1111122 
ENP,ioos.station.NOAA.NDBC:LBSF1:1,2017-11-04T20:00:00Z,25.2140,-80.4320,1.5,10.2,1111122 
ENP,ioos.station.NOAA.NDBC:LBSF1:1,2017-11-04T21:00:00Z,25.2140,-80.4320,1.5,10.3,1111122 
ENP,ioos.station.NOAA.NDBC:LBSF1:1,2017-11-04T22:00:00Z,25.2140,-80.4320,1.5,10.41,1111122 
ENP,ioos.station.NOAA.NDBC:LBSF1:1,2017-11-04T23:00:00Z,25.2140,-80.4320,1.5,10.5,1111122 
ENP,ioos.station.NOAA.NDBC:LBSF1:1,2017-11-05T00:00:00Z,25.2140,-80.4320,1.5,10.59,1111122 
ENP,ioos.station.NOAA.NDBC:LBSF1:1,2017-11-05T02:00:00Z,25.2140,-80.4320,1.5,10.67,1111122 
ENP,ioos.station.NOAA.NDBC:LBSF1:1,2017-11-05T03:00:00Z,25.2140,-80.4320,1.5,10.7,1111122 
ENP,ioos.station.NOAA.NDBC:LBSF1:1,2017-11-05T07:00:00Z,25.2140,-80.4320,1.5,10.73,1111122 
ENP,ioos.station.NOAA.NDBC:LBSF1:1,2017-11-05T08:00:00Z,25.2140,-80.4320,1.5,10.72,1111122 
ENP,ioos.station.NOAA.NDBC:LBSF1:1,2017-11-05T09:00:00Z,25.2140,-80.4320,1.5,10.74,1111122 
ENP,ioos.station.NOAA.NDBC:LBSF1:1,2017-11-05T12:00:00Z,25.2140,-80.4320,1.5,10.78,1111122 
ENP,ioos.station.NOAA.NDBC:LBSF1:1,2017-11-05T13:00:00Z,25.2140,-80.4320,1.5,10.79,1111122 
ENP,ioos.station.NOAA.NDBC:LBSF1:1,2017-11-05T14:00:00Z,25.2140,-80.4320,1.5,10.79,1111122 
ENP,ioos.station.NOAA.NDBC:LBSF1:1,2017-11-05T15:00:00Z,25.2140,-80.4320,1.5,10.81,1111122 
ENP,ioos.station.NOAA.NDBC:LBSF1:1,2017-11-05T16:00:00Z,25.2140,-80.4320,1.5,10.73,1111122 
ENP,ioos.station.NOAA.NDBC:LBSF1:1,2017-11-05T17:00:00Z,25.2140,-80.4320,1.5,10.65,1111122 
ENP,ioos.station.NOAA.NDBC:LBSF1:1,2017-11-05T18:00:00Z,25.2140,-80.4320,1.5,10.66,1111122 
ENP,ioos.station.NOAA.NDBC:LBSF1:1,2017-11-05T19:00:00Z,25.2140,-80.4320,1.5,10.78,1111122 
ENP,ioos.station.NOAA.NDBC:LBSF1:1,2017-11-05T20:00:00Z,25.2140,-80.4320,1.5,10.87,1111122 
ENP,ioos.station.NOAA.NDBC:LBSF1:1,2017-11-05T21:00:00Z,25.2140,-80.4320,1.5,10.93,1111122 
ENP,ioos.station.NOAA.NDBC:LBSF1:1,2017-11-05T22:00:00Z,25.2140,-80.4320,1.5,10.95,1111122 
ENP,ioos.station.NOAA.NDBC:LBSF1:1,2017-11-05T23:00:00Z,25.2140,-80.4320,1.5,10.96,1111122 
ENP,ioos.station.NOAA.NDBC:LBSF1:1,2017-11-06T00:00:00Z,25.2140,-80.4320,1.5,11.02,1111122 
ENP,ioos.station.NOAA.NDBC:LBSF1:1,2017-11-06T01:00:00Z,25.2140,-80.4320,1.5,11.02,1111122 
ENP,ioos.station.NOAA.NDBC:LBSF1:1,2017-11-06T03:00:00Z,25.2140,-80.4320,1.5,11.04,1111122 
ENP,ioos.station.NOAA.NDBC:LBSF1:1,2017-11-06T04:00:00Z,25.2140,-80.4320,1.5,10.95,1111122 
ENP,ioos.station.NOAA.NDBC:LBSF1:1,2017-11-06T06:00:00Z,25.2140,-80.4320,1.5,10.73,1111122 
ENP,ioos.station.NOAA.NDBC:LBSF1:1,2017-11-06T07:00:00Z,25.2140,-80.4320,1.5,10.72,1111122 
ENP,ioos.station.NOAA.NDBC:LBSF1:1,2017-11-06T08:00:00Z,25.2140,-80.4320,1.5,10.68,1111122 
ENP,ioos.station.NOAA.NDBC:LBSF1:1,2017-11-06T09:00:00Z,25.2140,-80.4320,1.5,10.66,1111122 
ENP,ioos.station.NOAA.NDBC:LBSF1:1,2017-11-06T11:00:00Z,25.2140,-80.4320,1.5,10.64,1111122 
ENP,ioos.station.NOAA.NDBC:LBSF1:1,2017-11-06T12:00:00Z,25.2140,-80.4320,1.5,10.65,1111122 
ENP,ioos.station.NOAA.NDBC:LBSF1:1,2017-11-06T13:00:00Z,25.2140,-80.4320,1.5,10.66,1111122 
ENP,ioos.station.NOAA.NDBC:LBSF1:1,2017-11-06T14:00:00Z,25.2140,-80.4320,1.5,10.7,1111122 
ENP,ioos.station.NOAA.NDBC:LBSF1:1,2017-11-06T15:00:00Z,25.2140,-80.4320,1.5,10.72,1111122 
ENP,ioos.station.NOAA.NDBC:LBSF1:1,2017-11-06T16:00:00Z,25.2140,-80.4320,1.5,10.7,1111122 
ENP,ioos.station.NOAA.NDBC:LBSF1:1,2017-11-06T17:00:00Z,25.2140,-80.4320,1.5,10.71,1111122 
ENP,ioos.station.NOAA.NDBC:LBSF1:1,2017-11-06T18:00:00Z,25.2140,-80.4320,1.5,10.74,1111122 
ENP,ioos.station.NOAA.NDBC:LBSF1:1,2017-11-06T19:00:00Z,25.2140,-80.4320,1.5,10.77,1111122 
ENP,ioos.station.NOAA.NDBC:LBSF1:1,2017-11-06T20:00:00Z,25.2140,-80.4320,1.5,10.85,1111122 
ENP,ioos.station.NOAA.NDBC:LBSF1:1,2017-11-06T21:00:00Z,25.2140,-80.4320,1.5,11.01,1111122 
ENP,ioos.station.NOAA.NDBC:LBSF1:1,2017-11-06T22:00:00Z,25.2140,-80.4320,1.5,11.19,1111122 
ENP,ioos.station.NOAA.NDBC:LBSF1:1,2017-11-06T23:00:00Z,25.2140,-80.4320,1.5,12.22,1111122 
ENP,ioos.station.NOAA.NDBC:LBSF1:1,2017-11-07T00:00:00Z,25.2140,-80.4320,1.5,13.05,1111122 
ENP,ioos.station.NOAA.NDBC:LBSF1:1,2017-11-07T01:00:00Z,25.2140,-80.4320,1.5,11.88,1111122 
ENP,ioos.station.NOAA.NDBC:LBSF1:1,2017-11-07T03:00:00Z,25.2140,-80.4320,1.5,11.02,1111122 
ENP,ioos.station.NOAA.NDBC:LBSF1:1,2017-11-07T04:00:00Z,25.2140,-80.4320,1.5,10.95,1111122 
ENP,ioos.station.NOAA.NDBC:LBSF1:1,2017-11-07T06:00:00Z,25.2140,-80.4320,1.5,10.87,1111122 
ENP,ioos.station.NOAA.NDBC:LBSF1:1,2017-11-07T07:00:00Z,25.2140,-80.4320,1.5,10.81,1111122 
ENP,ioos.station.NOAA.NDBC:LBSF1:1,2017-11-07T08:00:00Z,25.2140,-80.4320,1.5,10.81,1111122 
ENP,ioos.station.NOAA.NDBC:LBSF1:1,2017-11-07T09:00:00Z,25.2140,-80.4320,1.5,10.81,1111122 
ENP,ioos.station.NOAA.NDBC:LBSF1:1,2017-11-07T11:00:00Z,25.2140,-80.4320,1.5,10.8,1111122 
ENP,ioos.station.NOAA.NDBC:LBSF1:1,2017-11-07T12:00:00Z,25.2140,-80.4320,1.5,10.78,1111122 
ENP,ioos.station.NOAA.NDBC:LBSF1:1,2017-11-07T13:00:00Z,25.2140,-80.4320,1.5,10.78,1111122 
ENP,ioos.station.NOAA.NDBC:LBSF1:1,2017-11-07T14:00:00Z,25.2140,-80.4320,1.5,10.79,1111122 
ENP,ioos.station.NOAA.NDBC:LBSF1:1,2017-11-07T15:00:00Z,25.2140,-80.4320,1.5,10.86,1111122 
ENP,ioos.station.NOAA.NDBC:LBSF1:1,2017-11-07T16:00:00Z,25.2140,-80.4320,1.5,10.8,1111122 
ENP,ioos.station.NOAA.NDBC:LBSF1:1,2017-11-07T17:00:00Z,25.2140,-80.4320,1.5,10.81,1111122 
ENP,ioos.station.NOAA.NDBC:LBSF1:1,2017-11-07T18:00:00Z,25.2140,-80.4320,1.5,10.79,1111122 
ENP,ioos.station.NOAA.NDBC:LBSF1:1,2017-11-07T19:00:00Z,25.2140,-80.4320,1.5,10.81,1111122 
ENP,ioos.station.NOAA.NDBC:LBSF1:1,2017-11-07T20:00:00Z,25.2140,-80.4320,1.5,10.75,1111122 
ENP,ioos.station.NOAA.NDBC:LBSF1:1,2017-11-07T21:00:00Z,25.2140,-80.4320,1.5,10.99,1111122 
ENP,ioos.station.NOAA.NDBC:LBSF1:1,2017-11-07T22:00:00Z,25.2140,-80.4320,1.5,12.34,1111122 
ENP,ioos.station.NOAA.NDBC:LBSF1:1,2017-11-07T23:00:00Z,25.2140,-80.4320,1.5,13.67,1111122 
ENP,ioos.station.NOAA.NDBC:LBSF1:1,2017-11-08T00:00:00Z,25.2140,-80.4320,1.5,14.34,1111122 
ENP,ioos.station.NOAA.NDBC:LBSF1:1,2017-11-08T01:00:00Z,25.2140,-80.4320,1.5,14.5,1111122 
ENP,ioos.station.NOAA.NDBC:LBSF1:1,2017-11-08T04:00:00Z,25.2140,-80.4320,1.5,11.92,1111122 
ENP,ioos.station.NOAA.NDBC:LBSF1:1,2017-11-08T06:00:00Z,25.2140,-80.4320,1.5,11.55,1111122 
ENP,ioos.station.NOAA.NDBC:LBSF1:1,2017-11-08T07:00:00Z,25.2140,-80.4320,1.5,11.4,1111122 
ENP,ioos.station.NOAA.NDBC:LBSF1:1,2017-11-08T08:00:00Z,25.2140,-80.4320,1.5,11.26,1111122 
ENP,ioos.station.NOAA.NDBC:LBSF1:1,2017-11-08T09:00:00Z,25.2140,-80.4320,1.5,11.02,1111122 
ENP,ioos.station.NOAA.NDBC:LBSF1:1,2017-11-08T11:00:00Z,25.2140,-80.4320,1.5,10.83,1111122 
ENP,ioos.station.NOAA.NDBC:LBSF1:1,2017-11-08T12:00:00Z,25.2140,-80.4320,1.5,10.9,1111122 
ENP,ioos.station.NOAA.NDBC:LBSF1:1,2017-11-08T13:00:00Z,25.2140,-80.4320,1.5,11.15,1111122 
ENP,ioos.station.NOAA.NDBC:LBSF1:1,2017-11-08T14:00:00Z,25.2140,-80.4320,1.5,11.24,1111122 
ENP,ioos.station.NOAA.NDBC:LBSF1:1,2017-11-08T15:00:00Z,25.2140,-80.4320,1.5,11.2,1111122 
ENP,ioos.station.NOAA.NDBC:LBSF1:1,2017-11-08T16:00:00Z,25.2140,-80.4320,1.5,11.2,1111122 
ENP,ioos.station.NOAA.NDBC:LBSF1:1,2017-11-08T17:00:00Z,25.2140,-80.4320,1.5,11.23,1111122 
ENP,ioos.station.NOAA.NDBC:LBSF1:1,2017-11-08T18:00:00Z,25.2140,-80.4320,1.5,11.28,1111122 
ENP,ioos.station.NOAA.NDBC:LBSF1:1,2017-11-08T19:00:00Z,25.2140,-80.4320,1.5,11.36,1111122 
ENP,ioos.station.NOAA.NDBC:LBSF1:1,2017-11-08T20:00:00Z,25.2140,-80.4320,1.5,11.45,1111122 
ENP,ioos.station.NOAA.NDBC:LBSF1:1,2017-11-08T21:00:00Z,25.2140,-80.4320,1.5,11.5,1111122 
ENP,ioos.station.NOAA.NDBC:LBSF1:1,2017-11-08T22:00:00Z,25.2140,-80.4320,1.5,11.53,1111122 
ENP,ioos.station.NOAA.NDBC:LBSF1:1,2017-11-08T23:00:00Z,25.2140,-80.4320,1.5,11.59,1111122 
ENP,ioos.station.NOAA.NDBC:LBSF1:1,2017-11-09T00:00:00Z,25.2140,-80.4320,1.5,11.67,1111122 
ENP,ioos.station.NOAA.NDBC:LBSF1:1,2017-11-09T01:00:00Z,25.2140,-80.4320,1.5,11.79,1111122 
ENP,ioos.station.NOAA.NDBC:LBSF1:1,2017-11-09T03:00:00Z,25.2140,-80.4320,1.5,11.68,1111122 
ENP,ioos.station.NOAA.NDBC:LBSF1:1,2017-11-09T04:00:00Z,25.2140,-80.4320,1.5,11.65,1111122 
ENP,ioos.station.NOAA.NDBC:LBSF1:1,2017-11-09T06:00:00Z,25.2140,-80.4320,1.5,11.7,1111122 
ENP,ioos.station.NOAA.NDBC:LBSF1:1,2017-11-09T07:00:00Z,25.2140,-80.4320,1.5,11.72,1111122 
ENP,ioos.station.NOAA.NDBC:LBSF1:1,2017-11-09T08:00:00Z,25.2140,-80.4320,1.5,11.8,1111122 
ENP,ioos.station.NOAA.NDBC:LBSF1:1,2017-11-09T09:00:00Z,25.2140,-80.4320,1.5,11.84,1111122 
ENP,ioos.station.NOAA.NDBC:LBSF1:1,2017-11-09T11:00:00Z,25.2140,-80.4320,1.5,11.96,1111122 
ENP,ioos.station.NOAA.NDBC:LBSF1:1,2017-11-09T12:00:00Z,25.2140,-80.4320,1.5,12.0,1111122 
ENP,ioos.station.NOAA.NDBC:LBSF1:1,2017-11-09T13:00:00Z,25.2140,-80.4320,1.5,11.97,1111122 
ENP,ioos.station.NOAA.NDBC:LBSF1:1,2017-11-09T14:00:00Z,25.2140,-80.4320,1.5,11.96,1111122 
ENP,ioos.station.NOAA.NDBC:LBSF1:1,2017-11-09T15:00:00Z,25.2140,-80.4320,1.5,12.6,1111122 
ENP,ioos.station.NOAA.NDBC:LBSF1:1,2017-11-09T16:00:00Z,25.2140,-80.4320,1.5,13.47,1111122 
ENP,ioos.station.NOAA.NDBC:LBSF1:1,2017-11-09T17:00:00Z,25.2140,-80.4320,1.5,12.32,1111122 
ENP,ioos.station.NOAA.NDBC:LBSF1:1,2017-11-09T18:00:00Z,25.2140,-80.4320,1.5,12.0,1111122 
ENP,ioos.station.NOAA.NDBC:LBSF1:1,2017-11-09T19:00:00Z,25.2140,-80.4320,1.5,11.99,1111122 
ENP,ioos.station.NOAA.NDBC:LBSF1:1,2017-11-09T20:00:00Z,25.2140,-80.4320,1.5,12.17,1111122 
ENP,ioos.station.NOAA.NDBC:LBSF1:1,2017-11-09T21:00:00Z,25.2140,-80.4320,1.5,12.48,1111122 
ENP,ioos.station.NOAA.NDBC:LBSF1:1,2017-11-09T22:00:00Z,25.2140,-80.4320,1.5,12.88,1111122 
ENP,ioos.station.NOAA.NDBC:LBSF1:1,2017-11-09T23:00:00Z,25.2140,-80.4320,1.5,12.97,1111122 
ENP,ioos.station.NOAA.NDBC:LBSF1:1,2017-11-10T00:00:00Z,25.2140,-80.4320,1.5,12.69,1111122 
ENP,ioos.station.NOAA.NDBC:LBSF1:1,2017-11-10T01:00:00Z,25.2140,-80.4320,1.5,12.64,1111122 
ENP,ioos.station.NOAA.NDBC:LBSF1:1,2017-11-10T03:00:00Z,25.2140,-80.4320,1.5,12.9,1111122 
ENP,ioos.station.NOAA.NDBC:LBSF1:1,2017-11-10T04:00:00Z,25.2140,-80.4320,1.5,13.23,1111122 
ENP,ioos.station.NOAA.NDBC:LBSF1:1,2017-11-10T06:00:00Z,25.2140,-80.4320,1.5,13.28,1111122 
ENP,ioos.station.NOAA.NDBC:LBSF1:1,2017-11-10T07:00:00Z,25.2140,-80.4320,1.5,13.11,1111122 
ENP,ioos.station.NOAA.NDBC:LBSF1:1,2017-11-10T08:00:00Z,25.2140,-80.4320,1.5,12.98,1111122 
ENP,ioos.station.NOAA.NDBC:LBSF1:1,2017-11-10T09:00:00Z,25.2140,-80.4320,1.5,12.92,1111122 
ENP,ioos.station.NOAA.NDBC:LBSF1:1,2017-11-10T11:00:00Z,25.2140,-80.4320,1.5,12.86,1111122 
ENP,ioos.station.NOAA.NDBC:LBSF1:1,2017-11-10T12:00:00Z,25.2140,-80.4320,1.5,12.88,1111122 
ENP,ioos.station.NOAA.NDBC:LBSF1:1,2017-11-10T13:00:00Z,25.2140,-80.4320,1.5,12.88,1111122 
ENP,ioos.station.NOAA.NDBC:LBSF1:1,2017-11-10T14:00:00Z,25.2140,-80.4320,1.5,12.86,1111122 
ENP,ioos.station.NOAA.NDBC:LBSF1:1,2017-11-10T15:00:00Z,25.2140,-80.4320,1.5,13.11,1111122 
ENP,ioos.station.NOAA.NDBC:LBSF1:1,2017-11-10T16:00:00Z,25.2140,-80.4320,1.5,13.5,1111122 
ENP,ioos.station.NOAA.NDBC:LBSF1:1,2017-11-10T17:00:00Z,25.2140,-80.4320,1.5,13.24,1111122 
ENP,ioos.station.NOAA.NDBC:LBSF1:1,2017-11-10T18:00:00Z,25.2140,-80.4320,1.5,13.24,1111122 
ENP,ioos.station.NOAA.NDBC:LBSF1:1,2017-11-10T19:00:00Z,25.2140,-80.4320,1.5,13.26,1111122 
ENP,ioos.station.NOAA.NDBC:LBSF1:1,2017-11-10T20:00:00Z,25.2140,-80.4320,1.5,13.34,1111122 
ENP,ioos.station.NOAA.NDBC:LBSF1:1,2017-11-10T21:00:00Z,25.2140,-80.4320,1.5,13.61,1111122 
ENP,ioos.station.NOAA.NDBC:LBSF1:1,2017-11-10T22:00:00Z,25.2140,-80.4320,1.5,13.74,1111122 
ENP,ioos.station.NOAA.NDBC:LBSF1:1,2017-11-10T23:00:00Z,25.2140,-80.4320,1.5,13.76,1111122 
ENP,ioos.station.NOAA.NDBC:LBSF1:1,2017-11-11T00:00:00Z,25.2140,-80.4320,1.5,13.82,1111122 
ENP,ioos.station.NOAA.NDBC:LBSF1:1,2017-11-11T01:00:00Z,25.2140,-80.4320,1.5,13.93,1111122 
ENP,ioos.station.NOAA.NDBC:LBSF1:1,2017-11-11T04:00:00Z,25.2140,-80.4320,1.5,13.61,1111122 
ENP,ioos.station.NOAA.NDBC:LBSF1:1,2017-11-11T06:00:00Z,25.2140,-80.4320,1.5,13.56,1111122 
ENP,ioos.station.NOAA.NDBC:LBSF1:1,2017-11-11T07:00:00Z,25.2140,-80.4320,1.5,13.8,1111122 
ENP,ioos.station.NOAA.NDBC:LBSF1:1,2017-11-11T08:00:00Z,25.2140,-80.4320,1.5,13.73,1111122 
ENP,ioos.station.NOAA.NDBC:LBSF1:1,2017-11-11T09:00:00Z,25.2140,-80.4320,1.5,13.62,1111122 
ENP,ioos.station.NOAA.NDBC:LBSF1:1,2017-11-11T11:00:00Z,25.2140,-80.4320,1.5,13.63,1111122 
ENP,ioos.station.NOAA.NDBC:LBSF1:1,2017-11-11T12:00:00Z,25.2140,-80.4320,1.5,13.58,1111122 
ENP,ioos.station.NOAA.NDBC:LBSF1:1,2017-11-11T13:00:00Z,25.2140,-80.4320,1.5,13.6,1111122 
ENP,ioos.station.NOAA.NDBC:LBSF1:1,2017-11-11T14:00:00Z,25.2140,-80.4320,1.5,13.65,1111122 
ENP,ioos.station.NOAA.NDBC:LBSF1:1,2017-11-11T15:00:00Z,25.2140,-80.4320,1.5,13.73,1111122 
ENP,ioos.station.NOAA.NDBC:LBSF1:1,2017-11-11T16:00:00Z,25.2140,-80.4320,1.5,13.82,1111122 
ENP,ioos.station.NOAA.NDBC:LBSF1:1,2017-11-11T17:00:00Z,25.2140,-80.4320,1.5,13.88,1111122 
ENP,ioos.station.NOAA.NDBC:LBSF1:1,2017-11-11T18:00:00Z,25.2140,-80.4320,1.5,13.82,1111122 
ENP,ioos.station.NOAA.NDBC:LBSF1:1,2017-11-11T19:00:00Z,25.2140,-80.4320,1.5,14.0,1111122 
ENP,ioos.station.NOAA.NDBC:LBSF1:1,2017-11-11T20:00:00Z,25.2140,-80.4320,1.5,14.04,1111122 
ENP,ioos.station.NOAA.NDBC:LBSF1:1,2017-11-11T21:00:00Z,25.2140,-80.4320,1.5,14.15,1111122 
ENP,ioos.station.NOAA.NDBC:LBSF1:1,2017-11-11T22:00:00Z,25.2140,-80.4320,1.5,14.23,1111122 
ENP,ioos.station.NOAA.NDBC:LBSF1:1,2017-11-11T23:00:00Z,25.2140,-80.4320,1.5,14.29,1111122 
ENP,ioos.station.NOAA.NDBC:LBSF1:1,2017-11-12T00:00:00Z,25.2140,-80.4320,1.5,14.43,1111122 
ENP,ioos.station.NOAA.NDBC:LBSF1:1,2017-11-12T01:00:00Z,25.2140,-80.4320,1.5,14.62,1111122 
ENP,ioos.station.NOAA.NDBC:LBSF1:1,2017-11-12T04:00:00Z,25.2140,-80.4320,1.5,14.59,1111122 
ENP,ioos.station.NOAA.NDBC:LBSF1:1,2017-11-12T07:00:00Z,25.2140,-80.4320,1.5,14.67,1111122 
ENP,ioos.station.NOAA.NDBC:LBSF1:1,2017-11-12T08:00:00Z,25.2140,-80.4320,1.5,14.68,1111122 
ENP,ioos.station.NOAA.NDBC:LBSF1:1,2017-11-12T09:00:00Z,25.2140,-80.4320,1.5,14.71,1111122 
ENP,ioos.station.NOAA.NDBC:LBSF1:1,2017-11-12T12:00:00Z,25.2140,-80.4320,1.5,14.29,1111122 
ENP,ioos.station.NOAA.NDBC:LBSF1:1,2017-11-12T13:00:00Z,25.2140,-80.4320,1.5,14.23,1111122 
ENP,ioos.station.NOAA.NDBC:LBSF1:1,2017-11-12T14:00:00Z,25.2140,-80.4320,1.5,14.2,1111122 
ENP,ioos.station.NOAA.NDBC:LBSF1:1,2017-11-12T15:00:00Z,25.2140,-80.4320,1.5,14.24,1111122 
ENP,ioos.station.NOAA.NDBC:LBSF1:1,2017-11-12T16:00:00Z,25.2140,-80.4320,1.5,14.25,1111122 
ENP,ioos.station.NOAA.NDBC:LBSF1:1,2017-11-12T17:00:00Z,25.2140,-80.4320,1.5,14.06,1111122 
ENP,ioos.station.NOAA.NDBC:LBSF1:1,2017-11-12T18:00:00Z,25.2140,-80.4320,1.5,14.07,1111122 
ENP,ioos.station.NOAA.NDBC:LBSF1:1,2017-11-12T19:00:00Z,25.2140,-80.4320,1.5,13.96,1111122 
ENP,ioos.station.NOAA.NDBC:LBSF1:1,2017-11-12T20:00:00Z,25.2140,-80.4320,1.5,13.87,1111122 
ENP,ioos.station.NOAA.NDBC:LBSF1:1,2017-11-12T21:00:00Z,25.2140,-80.4320,1.5,13.93,1111122 
ENP,ioos.station.NOAA.NDBC:LBSF1:1,2017-11-12T22:00:00Z,25.2140,-80.4320,1.5,13.9,1111122 
ENP,ioos.station.NOAA.NDBC:LBSF1:1,2017-11-12T23:00:00Z,25.2140,-80.4320,1.5,13.85,1111122 
ENP,ioos.station.NOAA.NDBC:LBSF1:1,2017-11-13T00:00:00Z,25.2140,-80.4320,1.5,13.8,1111122 
ENP,ioos.station.NOAA.NDBC:LBSF1:1,2017-11-13T01:00:00Z,25.2140,-80.4320,1.5,13.81,1111122 
ENP,ioos.station.NOAA.NDBC:LBSF1:1,2017-11-13T03:00:00Z,25.2140,-80.4320,1.5,13.87,1111122 
ENP,ioos.station.NOAA.NDBC:LBSF1:1,2017-11-13T04:00:00Z,25.2140,-80.4320,1.5,13.9,1111122 
ENP,ioos.station.NOAA.NDBC:LBSF1:1,2017-11-13T06:00:00Z,25.2140,-80.4320,1.5,13.96,1111122 
ENP,ioos.station.NOAA.NDBC:LBSF1:1,2017-11-13T07:00:00Z,25.2140,-80.4320,1.5,13.98,1111122 
ENP,ioos.station.NOAA.NDBC:LBSF1:1,2017-11-13T08:00:00Z,25.2140,-80.4320,1.5,13.98,1111122 
ENP,ioos.station.NOAA.NDBC:LBSF1:1,2017-11-13T09:00:00Z,25.2140,-80.4320,1.5,13.96,1111122 
ENP,ioos.station.NOAA.NDBC:LBSF1:1,2017-11-13T11:00:00Z,25.2140,-80.4320,1.5,14.0,1111122 
ENP,ioos.station.NOAA.NDBC:LBSF1:1,2017-11-13T12:00:00Z,25.2140,-80.4320,1.5,14.0,1111122 
ENP,ioos.station.NOAA.NDBC:LBSF1:1,2017-11-13T13:00:00Z,25.2140,-80.4320,1.5,14.05,1111122 
ENP,ioos.station.NOAA.NDBC:LBSF1:1,2017-11-13T14:00:00Z,25.2140,-80.4320,1.5,14.04,1111122 
ENP,ioos.station.NOAA.NDBC:LBSF1:1,2017-11-13T15:00:00Z,25.2140,-80.4320,1.5,14.05,1111122 
ENP,ioos.station.NOAA.NDBC:LBSF1:1,2017-11-13T16:00:00Z,25.2140,-80.4320,1.5,14.09,1111122 
ENP,ioos.station.NOAA.NDBC:LBSF1:1,2017-11-13T17:00:00Z,25.2140,-80.4320,1.5,14.12,1111122 
ENP,ioos.station.NOAA.NDBC:LBSF1:1,2017-11-13T18:00:00Z,25.2140,-80.4320,1.5,14.14,1111122 
ENP,ioos.station.NOAA.NDBC:LBSF1:1,2017-11-13T19:00:00Z,25.2140,-80.4320,1.5,14.17,1111122 
ENP,ioos.station.NOAA.NDBC:LBSF1:1,2017-11-13T20:00:00Z,25.2140,-80.4320,1.5,14.19,1111122 
ENP,ioos.station.NOAA.NDBC:LBSF1:1,2017-11-13T21:00:00Z,25.2140,-80.4320,1.5,14.18,1111122 
ENP,ioos.station.NOAA.NDBC:LBSF1:1,2017-11-13T22:00:00Z,25.2140,-80.4320,1.5,14.17,1111122 